DW8565 Weather Reports


Display with metric or nautical units.
time (UTC)temp
F
wind
direction
speed
MPH
gust
MPH
rain 1hr
in
rain 24hr
in
rain mn
in
humidity
%
barometer
mb
20260506192116 59 180 5.0 13.0 0.00 0.00 0.00 85 1008.0
20260506191616 59 146 5.0 10.0 0.00 0.00 0.00 85 1008.0
20260506191116 59 163 6.0 12.0 0.00 0.00 0.00 86 1008.1
20260506190616 59 172 5.0 12.0 0.00 0.00 0.00 86 1008.2
20260506190117 59 215 5.0 13.0 0.00 0.00 0.00 88 1008.3
20260506185616 58 170 6.0 16.0 0.00 0.00 0.00 89 1008.4
20260506185110 58 222 6.0 16.0 0.00 0.00 0.00 88 1008.5
20260506184606 58 157 5.0 12.0 0.00 0.00 0.00 87 1008.5
20260506184108 59 178 6.0 12.0 0.00 0.00 0.00 87 1008.5
20260506183605 59 213 6.0 12.0 0.00 0.00 0.00 86 1008.6
20260506183107 59 187 6.0 12.0 0.00 0.00 0.00 86 1008.6
20260506182838 59 260 6.0 12.0 0.00 0.00 0.00 86 1008.8
20260506182107 58 181 6.0 15.0 0.00 0.00 0.00 86 1008.8
20260506181606 58 207 6.0 17.0 0.00 0.00 0.00 85 1008.9
20260506181107 59 252 6.0 17.0 0.00 0.00 0.00 84 1009.0
20260506180614 58 171 6.0 16.0 0.00 0.00 0.00 84 1008.9
20260506180607 58 241 6.0 14.0 0.00 0.00 0.00 84 1008.9
20260506175605 59 179 6.0 16.0 0.00 0.00 0.00 83 1009.0
20260506175106 59 163 6.0 13.0 0.00 0.00 0.00 84 1009.1
20260506174607 59 202 6.0 12.0 0.00 0.00 0.00 84 1009.4
20260506174338 59 148 7.0 12.0 0.00 0.00 0.00 84 1009.2
20260506173601 60 192 7.0 12.0 0.00 0.00 0.00 84 1009.3
20260506173055 60 138 7.0 16.0 0.00 0.00 0.00 84 1009.3
20260506172549 60 190 7.0 16.0 0.00 0.00 0.00 82 1009.3
20260506172044 60 211 7.0 15.0 0.00 0.00 0.00 81 1009.3
20260506171537 60 211 7.0 17.0 0.00 0.00 0.00 80 1009.4
20260506171029 60 178 6.0 17.0 0.00 0.00 0.00 80 1009.4
20260506170524 60 183 7.0 14.0 0.00 0.00 0.00 81 1009.5
20260506170019 60 199 7.0 14.0 0.00 0.00 0.00 82 1009.7
20260506165513 59 166 7.0 14.0 0.00 0.00 0.00 82 1009.9
20260506165007 59 198 7.0 19.0 0.00 0.00 0.00 81 1009.9
20260506164731 60 190 6.0 19.0 0.00 0.00 0.00 81 1010.1
20260506163955 60 177 6.0 15.0 0.00 0.00 0.00 81 1010.2
20260506163448 60 164 6.0 13.0 0.00 0.00 0.00 82 1010.4
20260506162942 59 202 5.0 13.0 0.00 0.00 0.00 82 1010.3
20260506162436 59 313 6.0 12.0 0.00 0.00 0.00 83 1010.5
20260506161930 59 238 6.0 12.0 0.00 0.00 0.00 83 1010.5
20260506161425 59 183 6.0 12.0 0.00 0.00 0.00 83 1010.6
20260506160918 58 0 5.0 10.0 0.00 0.00 0.00 83 1010.7
20260506160644 58 234 4.0 11.0 0.00 0.00 0.00 83 1010.7
20260506155907 58 201 5.0 11.0 0.00 0.00 0.00 83 1010.8
20260506155402 58 236 5.0 11.0 0.00 0.00 0.00 83 1010.8
20260506155126 58 227 5.0 15.0 0.00 0.00 0.00 83 1010.7
20260506154348 58 177 5.0 15.0 0.00 0.00 0.00 82 1010.8
20260506153842 58 208 6.0 14.0 0.00 0.00 0.00 82 1010.8
20260506153337 59 155 6.0 16.0 0.00 0.00 0.00 82 1010.8
20260506152830 59 171 5.0 16.0 0.00 0.00 0.00 81 1010.7
20260506152324 60 0 6.0 14.0 0.00 0.00 0.00 80 1010.9
20260506152050 60 194 6.0 15.0 0.00 0.00 0.00 80 1010.8
20260506151312 60 212 6.0 15.0 0.00 0.00 0.00 80 1010.8
20260506150806 59 169 6.0 14.0 0.00 0.00 0.00 81 1010.8
20260506150304 59 193 6.0 14.0 0.00 0.00 0.00 81 1010.9
20260506145755 59 121 5.0 13.0 0.00 0.00 0.00 80 1011.0
20260506145249 60 200 5.0 13.0 0.00 0.00 0.00 79 1011.0
20260506144742 60 163 6.0 13.0 0.00 0.00 0.00 79 1011.1
20260506144236 61 157 6.0 13.0 0.00 0.00 0.00 78 1011.0
20260506143730 61 166 5.0 12.0 0.00 0.00 0.00 77 1011.2
20260506143225 62 234 5.0 12.0 0.00 0.00 0.00 77 1011.2
20260506142949 61 200 6.0 12.0 0.00 0.00 0.00 78 1011.1
20260506142443 60 296 6.0 13.0 0.00 0.00 0.00 80 1011.1
20260506141706 60 190 5.0 14.0 0.00 0.00 0.00 80 1011.1
20260506141200 60 143 6.0 14.0 0.00 0.00 0.00 81 1011.1
20260506140926 59 171 6.0 11.0 0.00 0.00 0.00 81 1011.0
20260506140148 60 211 6.0 13.0 0.00 0.00 0.00 81 1011.0
20260506135643 60 212 6.0 14.0 0.00 0.00 0.00 80 1011.0
20260506135136 60 191 6.0 14.0 0.00 0.00 0.00 79 1011.0
20260506134629 61 167 6.0 15.0 0.00 0.00 0.00 79 1011.2
20260506134351 60 186 7.0 15.0 0.00 0.00 0.00 79 1011.2
20260506134226 60 175 6.0 15.0 0.00 0.00 0.00 80 1011.2
20260506133113 61 169 7.0 16.0 0.00 0.00 0.00 79 1011.4
20260506132606 61 265 8.0 19.0 0.00 0.00 0.00 79 1011.3
20260506132100 61 216 8.0 19.0 0.00 0.00 0.00 78 1011.5
20260506131555 61 213 7.0 17.0 0.00 0.00 0.00 79 1011.3
20260506131047 61 234 7.0 15.0 0.00 0.00 0.00 79 1011.4
20260506130816 61 273 7.0 17.0 0.00 0.00 0.00 79 1011.3
20260506130038 61 225 8.0 17.0 0.00 0.00 0.00 79 1011.3
20260506125529 61 198 8.0 17.0 0.00 0.00 0.00 79 1011.3
20260506125026 61 230 8.0 17.0 0.00 0.00 0.00 79 1011.4
20260506124518 61 181 7.0 18.0 0.00 0.00 0.00 80 1011.3
20260506124012 60 175 7.0 18.0 0.00 0.00 0.00 81 1011.3
20260506123506 60 209 7.0 16.0 0.00 0.00 0.00 82 1011.3
20260506123001 60 196 7.0 18.0 0.00 0.00 0.00 81 1011.3
20260506122455 60 0 8.0 18.0 0.00 0.00 0.00 80 1011.3
20260506121948 60 216 7.0 16.0 0.00 0.00 0.00 81 1011.3
20260506121442 60 224 6.0 13.0 0.00 0.00 0.00 82 1011.3
20260506120936 59 293 6.0 15.0 0.00 0.00 0.00 82 1011.2
20260506120431 59 240 6.0 15.0 0.00 0.00 0.00 82 1011.2
20260506115923 59 222 6.0 15.0 0.00 0.00 0.00 82 1011.3
20260506115418 59 217 6.0 15.0 0.00 0.00 0.00 83 1011.2
20260506114912 59 208 5.0 11.0 0.00 0.00 0.00 83 1011.3
20260506114405 59 203 5.0 12.0 0.00 0.00 0.00 84 1011.3
20260506113859 59 234 5.0 12.0 0.00 0.00 0.00 84 1011.3
20260506113355 58 186 6.0 15.0 0.00 0.00 0.00 84 1011.4
20260506113120 58 230 6.0 15.0 0.00 0.00 0.00 85 1011.2
20260506112342 58 175 6.0 13.0 0.00 0.00 0.00 85 1011.3
20260506111836 58 227 5.0 12.0 0.00 0.00 0.00 85 1011.3
20260506111330 58 209 5.0 12.0 0.00 0.00 0.00 85 1011.3
20260506110824 58 202 5.0 12.0 0.00 0.00 0.00 86 1011.2
20260506110318 58 207 5.0 12.0 0.00 0.00 0.00 86 1011.3
20260506105815 58 263 5.0 11.0 0.00 0.00 0.00 87 1011.3
20260506105809 57 223 5.0 15.0 0.00 0.00 0.00 87 1011.2
20260506104800 57 195 6.0 15.0 0.00 0.00 0.00 87 1011.1
20260506104253 57 165 6.0 12.0 0.00 0.00 0.00 88 1011.1
20260506103755 57 202 5.0 12.0 0.00 0.00 0.00 88 1011.1
20260506103527 57 171 6.0 15.0 0.00 0.00 0.00 88 1011.1
20260506102755 57 183 7.0 15.0 0.00 0.00 0.00 88 1011.1
20260506102254 57 189 7.0 15.0 0.00 0.00 0.00 89 1011.1
20260506101755 56 0 6.0 15.0 0.00 0.00 0.00 89 1011.1
20260506101253 56 188 5.0 12.0 0.00 0.00 0.00 89 1011.0
20260506100752 56 221 5.0 11.0 0.00 0.00 0.00 89 1011.0
20260506100252 56 192 5.0 11.0 0.00 0.00 0.00 89 1010.9
20260506095753 56 218 5.0 11.0 0.00 0.00 0.00 89 1010.8
20260506095255 56 201 5.0 10.0 0.00 0.00 0.00 89 1010.8
20260506094752 56 231 5.0 11.0 0.00 0.00 0.00 89 1010.8
20260506094254 56 246 5.0 11.0 0.00 0.00 0.00 89 1011.0
20260506093756 56 190 5.0 13.0 0.00 0.00 0.00 89 1011.0
20260506093528 55 170 5.0 13.0 0.00 0.00 0.00 89 1011.0
20260506093026 56 221 5.0 14.0 0.00 0.00 0.00 89 1011.0
20260506092252 56 177 5.0 14.0 0.00 0.00 0.00 89 1011.1
20260506091753 56 190 5.0 12.0 0.00 0.00 0.00 89 1011.1
20260506091250 56 215 5.0 12.0 0.00 0.00 0.00 89 1011.2
20260506090752 56 240 6.0 12.0 0.00 0.00 0.00 89 1011.1
20260506090252 56 244 6.0 12.0 0.00 0.00 0.00 88 1011.3
20260506085751 56 212 6.0 12.0 0.00 0.00 0.00 89 1011.4
20260506085251 56 235 6.0 11.0 0.00 0.00 0.00 89 1011.4
20260506085023 56 190 5.0 12.0 0.00 0.00 0.00 89 1011.3
20260506084253 56 213 5.0 13.0 0.00 0.00 0.00 88 1011.3
20260506083751 56 242 5.0 13.0 0.00 0.00 0.00 88 1011.4
20260506083251 56 184 5.0 12.0 0.00 0.00 0.00 89 1011.4
20260506083024 56 187 5.0 12.0 0.00 0.00 0.00 88 1011.3
20260506082252 56 212 5.0 12.0 0.00 0.00 0.00 88 1011.3
20260506081751 56 209 5.0 12.0 0.00 0.00 0.00 88 1011.3
20260506081252 56 218 5.0 14.0 0.00 0.00 0.00 88 1011.5
20260506080754 56 193 5.0 14.0 0.00 0.00 0.00 88 1011.4
20260506080251 56 184 5.0 11.0 0.00 0.00 0.00 88 1011.5
20260506073251 57 157 6.0 13.0 0.00 0.00 0.00 87 1011.6
20260506072750 57 217 6.0 14.0 0.00 0.00 0.00 86 1011.6
20260506072523 57 202 7.0 16.0 0.00 0.00 0.00 86 1011.6
20260506071752 57 222 7.0 16.0 0.00 0.00 0.00 86 1011.6
20260506071251 57 245 7.0 16.0 0.00 0.00 0.00 86 1011.6
20260506070745 57 244 6.0 14.0 0.00 0.00 0.00 86 1011.6
20260506070512 57 207 7.0 14.0 0.00 0.00 0.00 87 1011.7
20260506062241 57 209 7.0 15.0 0.00 0.00 0.00 85 1011.6
20260506061742 57 197 7.0 15.0 0.00 0.00 0.00 85 1011.6
20260506061512 57 215 7.0 21.0 0.00 0.00 0.00 84 1011.5
20260506060741 57 209 7.0 21.0 0.00 0.00 0.00 84 1011.6
20260506060242 58 175 7.0 19.0 0.00 0.00 0.00 84 1011.6
20260506051147 58 166 7.0 18.0 0.00 0.00 0.00 83 1012.0
20260506050642 57 201 7.0 18.0 0.00 0.00 0.00 84 1012.0
20260506050407 57 196 6.0 14.0 0.00 0.00 0.00 85 1012.0
20260506045123 56 236 5.0 11.0 0.00 0.00 0.00 85 1012.0
20260506044617 56 194 6.0 11.0 0.00 0.00 0.00 85 1012.1
20260506044111 56 182 6.0 11.0 0.00 0.00 0.00 85 1012.1
20260506043605 56 159 6.0 12.0 0.00 0.00 0.00 85 1012.1
20260506043059 56 196 5.0 13.0 0.00 0.00 0.00 85 1012.1
20260506042554 56 250 5.0 13.0 0.00 0.00 0.00 85 1012.1
20260506042047 56 240 5.0 12.0 0.00 0.00 0.00 85 1012.1
20260506041541 56 238 5.0 11.0 0.00 0.00 0.00 84 1012.1
20260506041036 56 209 5.0 13.0 0.00 0.00 0.00 84 1012.1
20260506040529 56 245 6.0 13.0 0.00 0.00 0.00 84 1012.1
20260506040023 56 184 6.0 11.0 0.00 0.00 0.00 84 1012.1
20260506035519 56 166 5.0 12.0 0.00 0.00 0.00 84 1012.1
20260506035242 56 219 5.0 13.0 0.00 0.00 0.00 84 1012.2
20260506034506 56 205 5.0 13.0 0.00 0.00 0.00 84 1012.2
20260506033959 56 190 5.0 11.0 0.00 0.00 0.00 84 1012.2
20260506033454 56 209 5.0 10.0 0.00 0.00 0.00 84 1012.3
20260506032948 56 168 5.0 13.0 0.00 0.00 0.00 83 1012.3
20260506032441 56 147 5.0 13.0 0.00 0.00 0.00 83 1012.2
20260506031935 57 212 5.0 13.0 0.00 0.00 0.00 83 1012.2
20260506031428 57 153 5.0 13.0 0.00 0.00 0.00 83 1012.3
20260506030924 57 147 5.0 12.0 0.00 0.00 0.00 83 1012.3
20260506030417 57 219 5.0 12.0 0.00 0.00 0.00 83 1012.3
20260506025912 57 192 5.0 15.0 0.00 0.00 0.00 82 1012.3
20260506025405 57 202 6.0 15.0 0.00 0.00 0.00 82 1012.3
20260506024900 58 193 6.0 17.0 0.00 0.00 0.00 81 1012.3
20260506024625 58 269 7.0 17.0 0.00 0.00 0.00 81 1012.3
20260506023848 58 190 7.0 16.0 0.00 0.00 0.00 81 1012.3
20260506023342 58 184 6.0 13.0 0.00 0.00 0.00 80 1012.4
20260506022836 58 155 6.0 13.0 0.00 0.00 0.00 80 1012.3
20260506022601 58 233 6.0 12.0 0.00 0.00 0.00 80 1012.4
20260506021823 58 287 6.0 15.0 0.00 0.00 0.00 79 1012.3
20260506021317 59 205 7.0 21.0 0.00 0.00 0.00 79 1012.4
20260506020812 58 200 7.0 21.0 0.00 0.00 0.00 79 1012.4
20260506020305 58 237 6.0 14.0 0.00 0.00 0.00 80 1012.3
20260506015801 58 211 6.0 14.0 0.00 0.00 0.00 80 1012.3
20260506015525 58 231 5.0 13.0 0.00 0.00 0.00 80 1012.2
20260506014747 58 224 6.0 16.0 0.00 0.00 0.00 79 1012.3
20260506014241 58 191 7.0 16.0 0.00 0.00 0.00 79 1012.3
20260506013735 58 156 7.0 15.0 0.00 0.00 0.00 80 1012.3
20260506013228 58 213 6.0 14.0 0.00 0.00 0.00 80 1012.2
20260506012724 58 215 6.0 11.0 0.00 0.00 0.00 80 1012.2
20260506012217 58 209 5.0 14.0 0.00 0.00 0.00 81 1012.1
20260506011711 58 304 5.0 14.0 0.00 0.00 0.00 81 1012.1
20260506011437 58 200 5.0 14.0 0.00 0.00 0.00 81 1012.0
20260506010659 58 184 6.0 13.0 0.00 0.00 0.00 81 1012.0
20260506010152 58 180 6.0 13.0 0.00 0.00 0.00 81 1011.9
20260506005646 58 253 6.0 15.0 0.00 0.00 0.00 80 1011.8
20260506005141 58 180 7.0 15.0 0.00 0.00 0.00 80 1011.9
20260506004636 58 215 7.0 13.0 0.00 0.00 0.00 80 1011.8
20260506004129 59 190 7.0 17.0 0.00 0.00 0.00 79 1011.7
20260506003622 59 145 7.0 17.0 0.00 0.00 0.00 78 1011.8
20260506003118 59 159 7.0 15.0 0.00 0.00 0.00 78 1011.8
20260506002612 58 211 7.0 15.0 0.00 0.00 0.00 79 1011.9
20260506002105 58 211 7.0 15.0 0.00 0.00 0.00 79 1011.7
20260506001559 58 217 7.0 14.0 0.00 0.00 0.00 79 1011.7
20260506001053 58 166 6.0 13.0 0.00 0.00 0.00 79 1011.6
20260506000548 58 242 6.0 13.0 0.00 0.00 0.00 79 1011.5
20260506000041 58 149 6.0 14.0 0.00 0.00 0.00 78 1011.5
20260505235535 58 211 6.0 14.0 0.00 0.00 0.00 78 1011.5
20260505235030 59 245 7.0 16.0 0.00 0.00 0.00 77 1011.4
20260505234523 59 154 6.0 16.0 0.00 0.00 0.00 77 1011.4
20260505234018 59 228 6.0 14.0 0.00 0.00 0.00 76 1011.4
20260505233742 60 192 7.0 16.0 0.00 0.00 0.00 75 1011.4
20260505233005 60 150 7.0 16.0 0.00 0.00 0.00 75 1011.4
20260505232500 60 173 8.0 16.0 0.00 0.00 0.00 74 1011.4
20260505232225 60 143 8.0 16.0 0.00 0.00 0.00 73 1011.1
20260505231448 61 229 7.0 17.0 0.00 0.00 0.00 73 1011.2
20260505230941 60 244 6.0 17.0 0.00 0.00 0.00 73 1011.2
20260505230434 60 166 7.0 15.0 0.00 0.00 0.00 73 1011.2
20260505230202 60 192 7.0 15.0 0.00 0.00 0.00 73 1011.1
20260505225423 61 140 6.0 12.0 0.00 0.00 0.00 72 1011.0
20260505224918 61 103 7.0 16.0 0.00 0.00 0.00 71 1010.9
20260505224411 62 181 7.0 16.0 0.00 0.00 0.00 70 1010.9
20260505223905 63 182 7.0 16.0 0.00 0.00 0.00 69 1010.9
20260505223400 63 223 8.0 17.0 0.00 0.00 0.00 67 1011.0
20260505222852 64 246 8.0 20.0 0.00 0.00 0.00 67 1010.9
20260505222346 64 169 8.0 20.0 0.00 0.00 0.00 67 1010.9
20260505221842 64 161 8.0 17.0 0.00 0.00 0.00 67 1010.9
20260505221336 64 200 8.0 22.0 0.00 0.00 0.00 67 1010.9
20260505220829 64 192 8.0 23.0 0.00 0.00 0.00 66 1010.9
20260505220323 64 126 9.0 23.0 0.00 0.00 0.00 66 1010.9
20260505215824 64 230 9.0 22.0 0.00 0.00 0.00 67 1010.8
20260505215321 64 169 9.0 23.0 0.00 0.00 0.00 67 1010.8
20260505214821 63 221 9.0 19.0 0.00 0.00 0.00 69 1010.7
20260505214555 63 198 9.0 19.0 0.00 0.00 0.00 69 1010.6
20260505213818 63 230 9.0 20.0 0.00 0.00 0.00 69 1010.7
20260505213320 63 194 8.0 21.0 0.00 0.00 0.00 70 1010.5
20260505212819 63 257 8.0 21.0 0.00 0.00 0.00 70 1010.6
20260505212318 63 138 9.0 18.0 0.00 0.00 0.00 70 1010.5
20260505212050 63 205 9.0 17.0 0.00 0.00 0.00 70 1010.6
20260505211318 63 126 9.0 17.0 0.00 0.00 0.00 70 1010.6
20260505210818 63 165 9.0 18.0 0.00 0.00 0.00 70 1010.5
20260505210318 63 171 8.0 18.0 0.00 0.00 0.00 69 1010.4
20260505205819 63 164 7.0 18.0 0.00 0.00 0.00 69 1010.4
20260505205318 63 170 8.0 19.0 0.00 0.00 0.00 69 1010.3
20260505204818 63 242 9.0 19.0 0.00 0.00 0.00 69 1010.3
20260505204320 63 183 8.0 18.0 0.00 0.00 0.00 69 1010.3
20260505203820 63 217 8.0 18.0 0.00 0.00 0.00 70 1010.3
20260505203317 62 137 7.0 18.0 0.00 0.00 0.00 70 1010.3
20260505202819 62 214 7.0 14.0 0.00 0.00 0.00 70 1010.4
20260505202550 62 235 7.0 14.0 0.00 0.00 0.00 70 1010.4
20260505201819 62 207 6.0 14.0 0.00 0.00 0.00 70 1010.4
20260505201552 62 171 6.0 13.0 0.00 0.00 0.00 70 1010.4
20260505200818 62 175 6.0 16.0 0.00 0.00 0.00 70 1010.4
20260505200317 62 275 7.0 16.0 0.00 0.00 0.00 71 1010.5
20260505195819 62 200 6.0 14.0 0.00 0.00 0.00 71 1010.5
20260505195314 62 215 6.0 15.0 0.00 0.00 0.00 71 1010.6
20260505194814 62 161 7.0 15.0 0.00 0.00 0.00 71 1010.8
20260505194313 62 211 6.0 15.0 0.00 0.00 0.00 71 1010.7
20260505193815 62 264 6.0 15.0 0.00 0.00 0.00 71 1010.8
20260505193316 62 142 7.0 15.0 0.00 0.00 0.00 71 1010.9
20260505193045 61 160 6.0 15.0 0.00 0.00 0.00 71 1010.9